Tracking 35331 objects as of 14-Sep-2026
HD Live streaming from Space Station
objects crossing your sky now

STARLINK-36540

Track STARLINK-36540 now!
10-day predictions
STARLINK-36540 is classified as:


NORAD ID: 67511
Int'l Code: 2026-012U
Launch date: January 18, 2026
Source: United States (US)
Launch site: AIR FORCE EASTERN TEST RANGE (AFETR)
Your satellite tracking list
Your tracking list is empty




NASA's NSSDC Master Catalog

Two Line Element Set (TLE):
1 67511U 26012U   26256.51417760  .00008082  00000-0  30279-3 0  9995
2 67511  43.0017 333.9942 0001255 265.4814  94.5895 15.27589072 36480
Source of the keplerian elements: AFSPC